This demonstration page uses our WeatherBlox Daily Observations layout. Learn more.

Hourly Observations for December 4, 2015

Temp ( °F °C ) Dew Point ( °F °C ) Humidity (%) Winds ( mph kmh ) Pressure ( in mb ) Visibility ( mi km ) Precip ( " mm )
12:15 am 00:15 Clear 31 -0.8 23 -4.9 74 74 Calm 30.42 1030 10 16.0934 0 0
12:35 am 00:35 Clear 30 -0.9 23 -4.9 75 75 SSW 6 9 30.42 1030 10 16.0934 0 0
12:55 am 00:55 Clear 31 -0.8 23 -5.1 73 73 SSW 6 9 30.42 1030 10 16.0934 0 0
1:15 am 01:15 Clear 31 -0.5 23 -5.2 71 71 S 5 7 30.39 1029 10 16.0934 0 0
1:35 am 01:35 Clear 30 -1.1 22 -5.5 72 72 S 5 7 30.36 1028 10 16.0934 0 0
1:55 am 01:55 Clear 29 -1.5 22 -5.3 76 76 S 5 7 30.36 1028 10 16.0934 0 0
2:15 am 02:15 Clear 28 -2 23 -5.2 79 79 SSW 6 9 30.39 1029 10 16.0934 0 0
2:35 am 02:35 Clear 31 -0.7 24 -4.6 75 75 SSW 8 13 30.36 1028 10 16.0934 0 0
2:55 am 02:55 Clear 31 -0.5 24 -4.5 75 75 SSW 8 13 30.36 1028 10 16.0934 0 0
3:15 am 03:15 Clear 31 -0.5 24 -4.5 75 75 SSW 7 11 30.36 1028 10 16.0934 0 0
3:35 am 03:35 Clear 31 -0.7 24 -4.6 75 75 SSW 7 11 30.36 1028 10 16.0934 0 0
3:55 am 03:55 Clear 30 -1 24 -4.6 77 77 S 8 13 30.36 1028 10 16.0934 0 0
4:15 am 04:15 Clear 31 -0.6 24 -4.6 75 75 SSW 8 13 30.36 1028 10 16.0934 0 0
4:35 am 04:35 Clear 30 -1.1 24 -4.7 77 77 S 7 11 30.36 1028 10 16.0934 0 0
4:55 am 04:55 Clear 30 -1 24 -4.6 77 77 S 7 11 30.36 1028 10 16.0934 0 0
5:15 am 05:15 Clear 29 -1.8 23 -4.8 80 80 S 6 9 30.36 1028 10 16.0934 0 0
5:35 am 05:35 Clear 27 -2.6 23 -5 84 84 S 5 7 30.36 1028 10 16.0934 0 0
5:55 am 05:55 Clear 28 -2.3 24 -4.6 84 84 S 8 13 30.36 1028 10 16.0934 0 0
6:15 am 06:15 Clear 28 -2.5 23 -4.8 84 84 S 6 9 30.36 1028 10 16.0934 0 0
6:35 am 06:35 Clear 28 -2.2 24 -4.6 84 84 SSE 6 9 30.36 1028 10 16.0934 0 0
6:55 am 06:55 Clear 28 -2.5 24 -4.7 85 85 S 8 13 30.36 1028 10 16.0934 0 0
7:15 am 07:15 Clear 28 -2 25 -4.1 86 86 S 6 9 30.39 1029 10 16.0934 0 0
7:35 am 07:35 Clear 29 -1.4 26 -3.4 86 86 S 7 11 30.36 1028 10 16.0934 0 0
7:55 am 07:55 Sunny 30 -1 26 -3.1 86 86 S 8 13 30.36 1028 10 16.0934 0 0
8:15 am 08:15 Sunny 31 -0.5 27 -2.6 86 86 S 9 15 30.36 1028 10 16.0934 0 0
8:35 am 08:35 Sunny 32 0 28 -2.5 83 83 S 6 9 30.36 1028 10 16.0934 0 0
8:55 am 08:55 Sunny 32 0.2 28 -2 85 85 S 6 9 30.36 1028 10 16.0934 0 0
9:15 am 09:15 Sunny 34 0.9 29 -1.8 82 82 S 12 19 30.36 1028 10 16.0934 0 0
9:35 am 09:35 Sunny 35 1.6 29 -1.5 80 80 S 12 19 30.33 1027 10 16.0934 0 0
9:55 am 09:55 Sunny 36 2.4 30 -1 79 79 S 12 19 30.33 1027 10 16.0934 0 0
10:15 am 10:15 Sunny 37 3 31 -0.8 76 76 S 10 17 30.3 1026 10 16.0934 0 0
10:35 am 10:35 Sunny 39 3.8 31 -0.4 74 74 SSE 12 19 30.3 1026 10 16.0934 0 0
10:55 am 10:55 Sunny 41 5 32 0 70 70 S 12 19 30.27 1025 10 16.0934 0 0
11:15 am 11:15 Sunny 43 6.2 33 0.3 66 66 S 14 22 30.27 1025 10 16.0934 0 0
11:35 am 11:35 Sunny 46 7.5 33 0.5 62 62 S 15 24 30.24 1024 10 16.0934 0 0
11:55 am 11:55 Sunny 46 7.9 33 0.4 59 59 S 14 22 30.21 1023 10 16.0934 0 0
12:15 pm 12:15 Sunny 47 8.6 33 0.5 57 57 S 14 22 30.21 1023 10 16.0934 0 0
12:35 pm 12:35 Sunny 49 9.3 34 0.9 56 56 S 16 26 30.21 1023 10 16.0934 0 0
12:55 pm 12:55 Sunny 50 10.2 34 1.3 54 54 S 16 26 30.18 1022 10 16.0934 0 0
1:15 pm 13:15 Sunny 52 11 35 1.4 52 52 S 17 28 30.12 1020 10 16.0934 0 0
1:35 pm 13:35 Sunny 52 11.2 34 1 50 50 S 17 28 30.12 1020 10 16.0934 0 0
1:55 pm 13:55 Sunny 52 11 35 1.4 52 52 S 16 26 30.12 1020 10 16.0934 0 0
2:15 pm 14:15 Sunny 54 12.3 35 1.5 48 48 SSE 20 31 30.12 1020 10 16.0934 0 0
2:35 pm 14:35 Sunny 55 12.5 34 1 46 46 S 21 33 30.12 1020 10 16.0934 0 0
2:55 pm 14:55 Sunny 54 12.4 34 0.9 46 46 S 21 33 30.12 1020 10 16.0934 0 0
3:15 pm 15:15 Sunny 56 13.1 33 0.4 42 42 S 24 39 30.12 1020 10 16.0934 0 0
3:35 pm 15:35 Sunny 55 13 33 0.6 43 43 S 20 31 30.12 1020 10 16.0934 0 0
3:55 pm 15:55 Sunny 55 12.5 32 0.1 43 43 S 18 30 30.12 1020 10 16.0934 0 0
4:15 pm 16:15 Sunny 53 11.6 33 0.4 46 46 SSE 20 31 30.12 1020 10 16.0934 0 0
4:35 pm 16:35 Sunny 52 11 33 0.7 49 49 SSE 16 26 30.12 1020 10 16.0934 0 0
4:55 pm 16:55 Sunny 51 10.3 33 0.7 52 52 SSE 16 26 30.15 1021 10 16.0934 0 0
5:15 pm 17:15 Clear 49 9.5 33 0.7 55 55 SSE 16 26 30.15 1021 10 16.0934 0 0
5:35 pm 17:35 Clear 47 8.6 34 1 59 59 SSE 15 24 30.15 1021 10 16.0934 0 0
5:55 pm 17:55 Clear 46 7.8 34 1 62 62 SSE 15 24 30.15 1021 10 16.0934 0 0
6:15 pm 18:15 Clear 47 8.5 34 1 60 60 SSE 16 26 30.15 1021 10 16.0934 0 0
6:35 pm 18:35 Clear 46 7.6 33 0.8 62 62 SSE 14 22 30.15 1021 10 16.0934 0 0
6:55 pm 18:55 Clear 45 7.2 33 0.7 64 64 SSE 16 26 30.18 1022 10 16.0934 0 0
7:15 pm 19:15 Clear 46 7.7 34 1 63 63 S 18 30 30.15 1021 10 16.0934 0 0
7:35 pm 19:35 Clear 45 7.4 34 1.1 65 65 SSE 17 28 30.18 1022 10 16.0934 0 0
7:55 pm 19:55 Clear 44 6.5 34 1.1 69 69 SSE 15 24 30.18 1022 10 16.0934 0 0
8:15 pm 20:15 Clear 43 6.2 34 1.1 70 70 SSE 15 24 30.18 1022 10 16.0934 0 0
8:35 pm 20:35 Clear 43 6.2 34 1.1 70 70 SSE 17 28 30.18 1022 10 16.0934 0 0
8:55 pm 20:55 Clear 42 5.8 34 1.1 72 72 SSE 14 22 30.18 1022 10 16.0934 0 0
9:15 pm 21:15 Clear 42 5.5 34 1.2 74 74 SSE 15 24 30.18 1022 10 16.0934 0 0
9:35 pm 21:35 Clear 42 5.6 34 1.3 74 74 SSE 14 22 30.18 1022 10 16.0934 0 0
9:55 pm 21:55 Clear 42 5.8 34 1.2 73 73 SSE 15 24 30.18 1022 10 16.0934 0 0
10:15 pm 22:15 Clear 42 5.8 34 1.2 73 73 SSE 14 22 30.18 1022 10 16.0934 0 0
10:35 pm 22:35 Clear 42 5.5 34 1.2 74 74 SSE 15 24 30.21 1023 10 16.0934 0 0
10:55 pm 22:55 Clear 42 5.3 34 1.1 75 75 SSE 16 26 30.18 1022 10 16.0934 0 0
11:15 pm 23:15 Clear 41 5 34 1.1 76 76 SSE 16 26 30.18 1022 10 16.0934 0 0
11:35 pm 23:35 Clear 40 4.7 34 1 77 77 SSE 13 20 30.18 1022 10 16.0934 0 0
11:55 pm 23:55 Clear 40 4.7 34 1 77 77 SSE 14 22 30.18 1022 10 16.0934 0 0

Powered by AerisWeather